Showing default

WNISAT 1R, 42835

Orbit data source: Space-Track

WNISAT 1R, 42835 is a payload satellite owned by WNI (JP) in SSO that was launched on Fri, 14 Jul 2017 UTC via a SOYUZ-2-1A launch vehicle from the Tyuratam Missile And Space Complex (TTMTR). Payload-class satellites include a variety of spacecraft equipped with specific instruments for various scientific and technological missions. These include communications satellites like Starlink; space stations such as the ISS; scientific satellites like the Hubble; Earth observation satellites from companies like Planet Labs, Umbra, and HawkEye 360; GPS; miniature CubeSats for education and research; and military/defense satellites.

Loading next visibility...
Identifier
42835, 2017-042L
Orbit
SSO
Country
Flag of JPJP / JPN
Related business
Manufacturer
AXELSPACE
Mission
Operational Commercial Weather
Bus & Motor
HODOYOSHI, Unknown motor
Mass
40 kg wet, 40 kg dry
Launch date (UTC)
2017-07-14 (9 years ago)
Launch vehicle
SOYUZ-2-1A
Launch site
Tyuratam Missile And Space Complex (TTMTR)
Object type
Payload
Rocket body
Debris
Shape & HBR
Box + 2 Pan, 0.8 m
Radar Cross Section
0.514 m², Medium (>0.1 m² and < 1m²)

Expand to show TLE details & history
Last TLE update: 11 hours ago

TLE from 11 hours ago
0 WNISAT 1R
1 42835U 17042L   26169.42452033  .00001781  00000-0  14105-3 0  9994
2 42835  97.4839 325.5022 0011311 143.3168 216.8834 15.01767059486692
Epoch: 2026-06-18T10:11Z
TLE epoch observation values (Epoch: 2026-06-18T10:11:18.556Z)
Latitude
0.00003°
Longitude
-93.99317°
Altitude
570.794 km
Speed
7.572 km/s
True Right ascension
21h 42m 00s
True Declination
0° 00' 00"
Sunlit
Object was in full shadow at epoch
Visualization orbit readout
Latitude
Unknown
Longitude
Unknown
Altitude
Unknown
Speed
Unknown
Apparent Right ascension
Unknown
Apparent Declination
Unknown
Sunlit
N/A
Visualization observer readout
Local Sidereal Time
07:46:33
Azimuth
Unknown
Elevation
Unknown
Doppler factor
Unknown
Orbital elements
Apogee altitude
566.287 km
Perigee altitude
550.595 km
Semi-major axis
6,936.578 km
Eccentricity
0.00113
Inclination
97.4839°
RAAN
325.5022°
Arg. of periapsis
143.3168°
True anomaly
216.80569°
Mean anomaly
216.8834°
Eccentric anomaly
216.84454°
Mean motion
3.75686 °/min
Orbital period
95.82 mins
BSTAR
0.00014105
Loading maneuver chart data...
Computing Atmospheric mass density...

Documentation

Showing up to 5 results
|